TimeCDT,TemperatureF,Dew PointF,Humidity,Sea Level PressureIn,VisibilityMPH,Wind Direction,Wind SpeedMPH,Gust SpeedMPH,PrecipitationIn,Events,Conditions,WindDirDegrees,DateUTC
12:53 AM,55.0,44.1,67,29.99,10.0,South,6.9,-,N/A,,Clear,180,2013-09-30 05:53:00
1:53 AM,52.0,44.1,74,29.99,10.0,Calm,Calm,-,N/A,,Clear,0,2013-09-30 06:53:00
2:53 AM,48.9,43.0,80,29.99,10.0,Calm,Calm,-,N/A,,Clear,0,2013-09-30 07:53:00
3:53 AM,46.9,43.0,86,29.99,10.0,Calm,Calm,-,N/A,,Clear,0,2013-09-30 08:53:00
4:53 AM,50.0,44.1,80,29.98,10.0,South,4.6,-,N/A,,Clear,180,2013-09-30 09:53:00
5:53 AM,50.0,44.1,80,29.98,10.0,South,3.5,-,N/A,,Clear,180,2013-09-30 10:53:00
6:53 AM,48.9,44.1,83,29.98,10.0,Calm,Calm,-,N/A,,Clear,0,2013-09-30 11:53:00
7:53 AM,51.1,46.0,83,29.98,10.0,South,3.5,-,N/A,,Clear,170,2013-09-30 12:53:00
8:53 AM,57.0,44.1,62,29.97,10.0,South,9.2,-,N/A,,Clear,180,2013-09-30 13:53:00
9:53 AM,62.1,44.1,52,29.95,10.0,South,11.5,-,N/A,,Clear,190,2013-09-30 14:53:00
10:53 AM,64.9,44.1,47,29.94,10.0,South,9.2,-,N/A,,Clear,180,2013-09-30 15:53:00
11:53 AM,66.9,44.1,44,29.94,10.0,South,16.1,21.9,N/A,,Clear,180,2013-09-30 16:53:00
12:53 PM,69.1,45.0,42,29.92,10.0,South,15.0,-,N/A,,Clear,180,2013-09-30 17:53:00
1:53 PM,70.0,43.0,38,29.89,10.0,South,12.7,20.7,N/A,,Clear,190,2013-09-30 18:53:00
2:53 PM,72.0,43.0,35,29.87,10.0,South,13.8,-,N/A,,Clear,180,2013-09-30 19:53:00
3:53 PM,72.0,41.0,33,29.85,10.0,South,16.1,-,N/A,,Clear,180,2013-09-30 20:53:00
4:53 PM,72.0,43.0,35,29.83,10.0,South,17.3,-,N/A,,Clear,170,2013-09-30 21:53:00
5:53 PM,71.1,44.1,38,29.82,10.0,South,10.4,-,N/A,,Clear,180,2013-09-30 22:53:00
6:53 PM,68.0,46.0,45,29.83,10.0,South,6.9,-,N/A,,Clear,180,2013-09-30 23:53:00
7:53 PM,64.9,46.9,52,29.82,10.0,South,8.1,-,N/A,,Clear,180,2013-10-01 00:53:00
8:53 PM,64.0,46.9,54,29.82,10.0,South,10.4,-,N/A,,Clear,190,2013-10-01 01:53:00
9:53 PM,63.0,46.9,56,29.83,10.0,SSW,6.9,-,N/A,,Clear,200,2013-10-01 02:53:00
10:53 PM,63.0,48.0,58,29.83,10.0,SSW,5.8,-,N/A,,Clear,200,2013-10-01 03:53:00
11:53 PM,63.0,48.9,60,29.83,10.0,South,10.4,-,N/A,,Clear,190,2013-10-01 04:53:00